OneWeb SL0356

operational
NORAD ID: 49283 Int'l Des: 2021-090 Owner: ONEWEBN Country: UK Constellation: oneweb
LEOCIRCULARPOLARONEWEB_TYPE

OneWeb SL0356について

説明を読み込み中...

リアルタイム位置

3D地球を読み込み中...

次回通過

高度履歴

Altitude vs Time

uPlot chart will show altitude changes over time

軌道要素

1 49283U 21090E 25305.50128198 -.00000057 00000-0 -17237-3 0 9994
2 49283 87.9188 319.8446 0000994 99.0205 261.1041 13.20771435199772
Epoch: Nov 1, 2025 • Age: 28 hours

現在のステータス

高度 1201.1 km
速度 7.25 km/s
衛星直下点 -48.51°S, 147.08°W
打ち上げ日 Oct 14, 2021
運用期間 4 years
タイプ internet

技術仕様

分類 Payload
質量 148.00 kg
乾燥質量 140.00 kg
総質量 148.00 kg
長さ 1.30 m
直径 1.00 m
スパン 5.00 m
形状 Trapezoid+2 pan
製造者 ONEWUS
バスタイプ ARROW
フェーズステータス In Orbit
所有者/国 ONEWEBN/UK

大規模コンステレーション

Loading constellations...